Weather History for Kalispell, MT

Change the Weather History Date:

Thursday, September 4, 2014

  Actual Average Record
Temperature  
Mean Temperature 54 °F 58 °F  
Max Temperature 66 °F 75 °F 93 °F (1998)
Min Temperature 41 °F 42 °F 27 °F (1962)
Degree Days  
Heating Degree Days 11 7  
Month to date heating degree days 39 26  
Since 1 July heating degree days 116 196  
Cooling Degree Days 0 0  
Month to date cooling degree days 0 1  
Year to date cooling degree days 215 144  
Growing Degree Days 3 (Base 50)    
Moisture  
Dew Point 43 °F    
Average Humidity 70    
Maximum Humidity 100    
Minimum Humidity 40    
Precipitation  
Precipitation 0.00 in 0.05 in 0.33 in (1940)
Month to date precipitation 0.45 0.19  
Year to date precipitation 14.79 11.80  
Snow  
Snow 0.00 in - - ()
Month to date snowfall 0.0  
Year to date snowfall 38.2  
Since 1 July snowfall 0.0  
Snow Depth 0.00 in    
Sea Level Pressure  
Sea Level Pressure 30.17 in    
Wind  
Wind Speed 1 mph (North)    
Max Wind Speed 10 mph    
Max Gust Speed 14 mph    
Visibility 9 miles    
Events Fog    
T = Trace of Precipitation, MM = Missing Value Source: NWS Daily Summary

Daily Weather History Graph

Daily Weather History Graph

Search for Another Location

Airport:

Trip Planner

Search our weather history database for the weather conditions in past years. The results will help you decide how hot, cold, wet, or windy it might be!

Date:

Astronomy

Sep. 04, 2014 Rise Set
Actual Time 6:58 AM MDT 8:12 PM MDT
Civil Twilight 6:26 AM MDT 8:44 PM MDT
Nautical Twilight 5:47 AM MDT 9:22 PM MDT
Astronomical Twilight 5:06 AM MDT 10:04 PM MDT
Moon 5:07 PM MDT (9/4) 1:38 AM MDT (9/4)
Length of Visible Light 14h 17m
Length of Day
13h 13m
Waxing Gibbous, 75% of the Moon is Illuminated
Sep 4
Waxing Gibbous
Sep 8
Full
Sep 15
Last Quarter
Sep 24
New
Oct 1
First Quarter

Hourly Weather History & Observations

Time (MDT) Temp. Windchill Dew Point Humidity Pressure Visibility Wind Dir Wind Speed Gust Speed Precip Events Conditions
12:23 AM 42.1 °F 40.2 °F 42.1 °F 100% 30.10 in 0.5 mi North 3.5 mph - N/A Fog Fog
12:55 AM 42.1 °F - 42.1 °F 100% 30.14 in 1.0 mi Calm Calm - N/A   Overcast
1:06 AM 44.1 °F - 44.1 °F 100% 30.12 in 2.0 mi Calm Calm - N/A   Overcast
1:14 AM 43.0 °F 41.3 °F 43.0 °F 100% 30.12 in 10.0 mi NNE 3.5 mph - N/A   Overcast
1:55 AM 44.1 °F 42.5 °F 44.1 °F 100% 30.14 in 10.0 mi NW 3.5 mph - N/A   Overcast
2:38 AM 45.0 °F - 44.1 °F 97% 30.14 in 10.0 mi Calm Calm - N/A   Overcast
2:51 AM 44.6 °F - 44.6 °F 100% 30.14 in 10.0 mi Calm Calm - N/A   Overcast
2:55 AM 45.0 °F - 45.0 °F 100% 30.17 in 10.0 mi Calm Calm - N/A   Overcast
3:13 AM 45.0 °F 43.5 °F 45.0 °F 100% 30.14 in 10.0 mi NW 3.5 mph - N/A   Overcast
3:55 AM 46.0 °F 44.8 °F 45.0 °F 96% 30.17 in 10.0 mi North 3.5 mph - N/A   Overcast
4:55 AM 46.0 °F - 45.0 °F 96% 30.17 in 10.0 mi Calm Calm - N/A   Overcast
5:55 AM 46.9 °F - 45.0 °F 93% 30.18 in 10.0 mi Calm Calm - N/A   Overcast
6:48 AM 46.9 °F - 44.1 °F 90% 30.17 in 10.0 mi Calm Calm - N/A   Overcast
6:55 AM 46.9 °F - 44.1 °F 90% 30.19 in 10.0 mi Calm Calm - N/A   Overcast
7:55 AM 46.9 °F - 45.0 °F 93% 30.21 in 10.0 mi Calm Calm - N/A   Overcast
8:55 AM 48.9 °F - 44.1 °F 83% 30.22 in 10.0 mi Calm Calm - N/A   Overcast
9:55 AM 52.0 °F - 44.1 °F 74% 30.22 in 10.0 mi East 3.5 mph - N/A   Clear
10:55 AM 54.0 °F - 44.1 °F 69% 30.22 in 10.0 mi Variable 3.5 mph - N/A   Mostly Cloudy
11:55 AM 54.0 °F - 43.0 °F 66% 30.23 in 10.0 mi Calm Calm - N/A   Mostly Cloudy
12:55 PM 57.9 °F - 42.1 °F 56% 30.21 in 10.0 mi Calm Calm - N/A   Clear
1:55 PM 61.0 °F - 41.0 °F 48% 30.18 in 10.0 mi Calm Calm - N/A   Partly Cloudy
2:55 PM 62.1 °F - 39.0 °F 43% 30.17 in 10.0 mi Calm Calm - N/A   Clear
3:55 PM 64.0 °F - 39.9 °F 41% 30.15 in 10.0 mi SSE 4.6 mph - N/A   Clear
4:55 PM 64.9 °F - 41.0 °F 42% 30.14 in 10.0 mi North - - N/A   Mostly Cloudy
5:55 PM 64.9 °F - 41.0 °F 42% 30.14 in 10.0 mi South 4.6 mph - N/A   Clear
6:55 PM 64.0 °F - 39.9 °F 41% 30.14 in 10.0 mi South 5.8 mph - N/A   Clear
7:55 PM 59.0 °F - 42.8 °F 55% 30.14 in 10.0 mi SSE 3.5 mph - N/A   Clear
8:55 PM 51.1 °F - 43.0 °F 74% 30.17 in 10.0 mi Calm Calm - N/A   Clear
9:55 PM 46.9 °F - 42.1 °F 83% 30.19 in 10.0 mi Calm Calm - N/A   Clear
10:55 PM 43.0 °F - 41.0 °F 93% 30.19 in 10.0 mi Calm Calm - N/A   Clear
11:55 PM 42.1 °F - 39.9 °F 92% 30.21 in 10.0 mi Calm Calm - N/A   Clear